AYNZ

Lae Nadzab Airport

Airport
ICAO code
AYNZ
IATA Code
LAE
Summary
ICAO Region
APAC
ICAO Territory
Location

Nadzab, Morobe

Serving
Lae
Elevation
239 ft
Coordinates
6° 34' 11" S , 146° 43' 34" E
KCC
Metar
AYNZ 220500Z 11009KT 9999 HZ SCT040 BKN070 32/25 Q1007=

Lae Nadzab Airport, is an airport located in Nadzab, Papua New Guinea.

Climatology

Tropical Rainforest climate (Köppen climate classification Af) - almost no distinct seasons, average daily temperature around 27°C throughout the year. Extensive cloud cover and heavy rainfall prevent temperatures from rising much over 33°C. The diurnal temperature change is between 2°C and 5°C which is greater than the annual temperature range of 2°C. Rainfall is heavy and is usually convectional and in the afternoon.

Runways

Designator Length Width Surface Rops
9/27 2440 30 ASP No/No

Airport map

Aerial View

SKYbrary Partners:

Safety knowledge contributed by: